Weather History for Waukegan, IL

Change the Weather History Date:

Wednesday, May 22, 2013

  Actual Average Record
Temperature  
Mean Temperature 61 °F -  
Max Temperature 72 °F 68 °F 80 °F (2005)
Min Temperature 50 °F 47 °F 33 °F (2006)
Degree Days  
Heating Degree Days 4 9  
Month to date heating degree days 200 244  
Since 1 July heating degree days 6500 6686  
Cooling Degree Days 0 1  
Month to date cooling degree days 19 9  
Year to date cooling degree days 27 13  
Growing Degree Days 10 (Base 50)    
Moisture  
Dew Point 60 °F    
Average Humidity 89    
Maximum Humidity 100    
Minimum Humidity 78    
Precipitation  
Precipitation 1.17 in 0.14 in 1.33 in (2004)
Month to date precipitation 2.13 2.85  
Year to date precipitation 13.25 11.70  
Sea Level Pressure  
Sea Level Pressure 29.66 in    
Wind  
Wind Speed 5 mph (East)    
Max Wind Speed 13 mph    
Max Gust Speed 18 mph    
Visibility 5 miles    
Events Fog , Rain    
T = Trace of Precipitation, MM = Missing Value Source: NWS Daily Summary

Daily Weather History Graph

Daily Weather History Graph

Search for Another Location

Airport:

Trip Planner

Search our weather history database for the weather conditions in past years. The results will help you decide how hot, cold, wet, or windy it might be!

Date:

Astronomy

May. 22, 2013 Rise Set
Actual Time 5:23 AM CDT 8:13 PM CDT
Civil Twilight 4:50 AM CDT 8:46 PM CDT
Nautical Twilight 4:08 AM CDT 9:28 PM CDT
Astronomical Twilight 3:20 AM CDT 10:17 PM CDT
Moon 5:32 PM CDT (5/22) 3:30 AM CDT (5/22)
Length of Visible Light 15h 56m
Length of Day
14h 50m
Waxing Gibbous, 91% of the Moon is Illuminated
May 22
Waxing Gibbous
May 24
Full
May 31
Last Quarter
Jun 8
New
Jun 16
First Quarter

Hourly Weather History & Observations

Time (CDT) Temp. Dew Point Humidity Pressure Visibility Wind Dir Wind Speed Gust Speed Precip Events Conditions
12:52 AM 64.9 °F 60.1 °F 84% 29.65 in 10.0 mi Calm Calm - N/A   Scattered Clouds
1:52 AM 66.9 °F 64.9 °F 93% 29.65 in 6.0 mi South 11.5 mph - 0.02 in Rain Light Rain
2:50 AM 66.2 °F 64.4 °F 94% 29.67 in 3.0 mi SE 6.9 mph - 0.01 in   Overcast
2:52 AM 64.9 °F 64.9 °F 100% 29.64 in 3.0 mi SE 6.9 mph - 0.01 in   Overcast
3:05 AM 64.4 °F 62.6 °F 94% 29.66 in 5.0 mi SE 5.8 mph - N/A   Mostly Cloudy
3:52 AM 63.0 °F 63.0 °F 100% 29.62 in 4.0 mi East 3.5 mph - 0.00 in   Mostly Cloudy
4:52 AM 63.0 °F 63.0 °F 100% 29.63 in 3.0 mi SSE 5.8 mph - 0.05 in Rain Rain
5:29 AM 62.6 °F 62.6 °F 100% 29.64 in 4.0 mi Calm Calm - 0.05 in Rain Light Rain
5:52 AM 63.0 °F 63.0 °F 100% 29.62 in 2.0 mi East 3.5 mph - 0.06 in Rain Light Rain
6:42 AM 62.6 °F 62.6 °F 100% 29.65 in 1.5 mi Calm Calm - 0.06 in Rain Light Rain
6:52 AM 63.0 °F 63.0 °F 100% 29.62 in 1.0 mi Calm Calm - 0.07 in Rain Light Rain
7:20 AM 62.6 °F 62.6 °F 100% 29.64 in 2.5 mi SE 3.5 mph - 0.01 in Rain Light Rain
7:52 AM 64.0 °F 63.0 °F 96% 29.61 in 2.5 mi Calm Calm - 0.02 in Rain Light Rain
8:52 AM 64.0 °F 63.0 °F 96% 29.62 in 2.5 mi Calm Calm - 0.01 in   Overcast
8:59 AM 64.4 °F 62.6 °F 94% 29.64 in 3.0 mi Calm Calm - N/A   Overcast
9:06 AM 64.4 °F 62.6 °F 94% 29.64 in 2.5 mi Calm Calm - N/A   Overcast
9:14 AM 64.4 °F 62.6 °F 94% 29.63 in 2.5 mi Calm Calm - 0.00 in Rain Light Rain
9:52 AM 64.9 °F 64.0 °F 97% 29.61 in 2.5 mi Calm Calm - 0.00 in Rain Light Rain
10:11 AM 66.2 °F 64.4 °F 94% 29.63 in 3.0 mi SW 3.5 mph - 0.01 in Rain Light Rain
10:21 AM 68.0 °F 64.4 °F 88% 29.63 in 5.0 mi Calm Calm - 0.01 in Rain Light Rain
10:25 AM 68.0 °F 66.2 °F 94% 29.64 in 5.0 mi SW 4.6 mph - 0.01 in   Overcast
10:36 AM 69.8 °F 64.4 °F 83% 29.64 in 10.0 mi SW 6.9 mph - 0.01 in   Overcast
10:52 AM 71.1 °F 64.9 °F 81% 29.61 in 10.0 mi SSW 6.9 mph - 0.01 in   Mostly Cloudy
11:26 AM 71.6 °F 64.4 °F 78% 29.63 in 10.0 mi Variable 4.6 mph - N/A   Mostly Cloudy
11:34 AM 71.6 °F 62.6 °F 73% 29.63 in 10.0 mi Variable 3.5 mph - N/A   Overcast
11:52 AM 70.0 °F 64.0 °F 81% 29.61 in 10.0 mi WNW 4.6 mph - N/A   Overcast
12:06 PM 69.8 °F 64.4 °F 83% 29.63 in 1.5 mi Variable 3.5 mph - 0.05 in Rain Heavy Rain
12:17 PM 66.2 °F 62.6 °F 88% 29.64 in 0.5 mi WSW 4.6 mph - 0.23 in Fog , Rain Heavy Rain
12:23 PM 64.4 °F 62.6 °F 94% 29.63 in 0.2 mi West 8.1 mph - 0.48 in Fog , Rain Heavy Rain
12:32 PM 62.6 °F 60.8 °F 94% 29.64 in 0.8 mi Variable 5.8 mph - 0.56 in Rain Heavy Rain
12:50 PM 62.6 °F 60.8 °F 94% 29.66 in 1.5 mi Calm Calm - 0.69 in Rain Rain
12:52 PM 63.0 °F 60.1 °F 90% 29.64 in 3.0 mi SW 3.5 mph - 0.69 in Rain Rain
1:22 PM 62.6 °F 62.6 °F 100% 29.68 in 3.0 mi SW 6.9 mph - 0.07 in Rain Rain
1:32 PM 62.6 °F 62.6 °F 100% 29.68 in 1.8 mi SW 10.4 mph - 0.12 in Rain Rain
1:45 PM 62.6 °F 60.8 °F 94% 29.68 in 2.0 mi Variable 5.8 mph 16.1 mph 0.16 in Rain Rain
1:50 PM 62.6 °F 60.8 °F 94% 29.67 in 1.8 mi SW 3.5 mph - 0.18 in Rain Rain
1:52 PM 63.0 °F 61.0 °F 93% 29.65 in 1.8 mi Calm Calm - 0.19 in Rain Rain
2:08 PM 62.6 °F 62.6 °F 100% 29.65 in 3.0 mi Calm Calm - 0.03 in Rain Light Rain
2:36 PM 64.4 °F 62.6 °F 94% 29.65 in 10.0 mi West 5.8 mph - 0.03 in   Mostly Cloudy
2:52 PM 66.0 °F 62.1 °F 87% 29.64 in 10.0 mi West 6.9 mph - 0.03 in   Partly Cloudy
3:42 PM 66.2 °F 62.6 °F 88% 29.66 in 10.0 mi Variable 6.9 mph - N/A   Overcast
3:52 PM 70.0 °F 62.1 °F 76% 29.64 in 10.0 mi Variable 6.9 mph - N/A   Scattered Clouds
4:42 PM 57.2 °F 55.4 °F 94% 29.66 in 10.0 mi East 9.2 mph - N/A   Overcast
4:52 PM 55.9 °F 54.0 °F 93% 29.65 in 10.0 mi East 9.2 mph - 0.01 in   Overcast
5:07 PM 55.4 °F 53.6 °F 94% 29.67 in 10.0 mi NE 6.9 mph - N/A   Mostly Cloudy
5:23 PM 53.6 °F 51.8 °F 94% 29.67 in 10.0 mi NE 8.1 mph - N/A   Mostly Cloudy
5:52 PM 54.0 °F 52.0 °F 93% 29.67 in 10.0 mi NE 9.2 mph - N/A   Overcast
6:09 PM 53.6 °F 51.8 °F 94% 29.67 in 10.0 mi NE 6.9 mph - N/A   Overcast
6:52 PM 54.0 °F 53.1 °F 97% 29.68 in 10.0 mi North 4.6 mph - N/A   Scattered Clouds
7:14 PM 53.6 °F 53.6 °F 100% 29.70 in 10.0 mi NE 4.6 mph - N/A   Overcast
7:52 PM 54.0 °F 53.1 °F 97% 29.70 in 10.0 mi Calm Calm - N/A   Overcast
8:52 PM 54.0 °F 52.0 °F 93% 29.72 in 10.0 mi NNE 4.6 mph - N/A   Overcast
9:52 PM 51.1 °F 50.0 °F 96% 29.74 in 9.0 mi North 9.2 mph - N/A   Overcast
10:25 PM 50.0 °F 50.0 °F 100% 29.76 in 2.0 mi North 9.2 mph 17.3 mph N/A   Overcast
10:52 PM 50.0 °F 48.9 °F 96% 29.75 in 2.0 mi North 11.5 mph 17.3 mph N/A   Overcast
11:14 PM 50.0 °F 48.2 °F 94% 29.77 in 3.0 mi North 11.5 mph 17.3 mph N/A   Overcast
11:52 PM 50.0 °F 48.9 °F 96% 29.75 in 3.0 mi North 6.9 mph - N/A   Overcast